SCP
0 0 0 0 0 0 0 0 0 0 0 0 0 0 0 0 0 0 0 0 1 1 1 1 1 2 1 1 1 2 2 1 1 1 1 1 1 1 1 1 1 1 1 0
0 0 0 0 0 0 0 0 0 0 0 0 0 0 0 0 0 0 0 0 0 1 0 1 1 0 0 0 0 0 0 0 1 1 1 1 1 1 1 1 1 1 1 0
0 0 0 0 0 0 0 0 0 0 0 0 0 0 0 0 0 0 0 0 0 0 0 0 0 0 0 0 0 0 0 0 1 1 1 1 1 1 0 1 0 0 0 0
0 0 0 0 0 0 0 0 0 0 0 0 0 0 0 0 0 0 0 0 0 0 0 0 0 0 0 0 0 0 0 0 0 0 0 0 0 0 0 0 0 0 0 0
0 0 0 0 0 0 0 0 0 0 0 0 0 0 0 0 0 0 0 0 0 0 0 0 0 0 0 0 0 0 0 0 0 0 0 0 0 0 0 0 0 0 0 0
0 0 0 0 0 0 0 0 0 0 0 0 0 0 1 0 0 0 0 0 0 0 0 0 0 0 0 0 0 0 0 0 0 0 0 0 0 0 0 0 0 0 0 0
0 0 0 0 0 0 0 0 0 0 0 0 0 1 0 0 0 0 0 0 0 0 1 1 0 0 0 0 0 0 0 0 0 0 0 0 0 0 0 0 0 0 0 0
0 0 0 0 0 0 0 0 0 0 1 1 1 1 0 0 0 0 0 1 1 1 1 0 0 0 0 0 0 0 0 0 0 0 0 0 0 0 0 0 0 0 0 0
0 0 0 0 0 0 0 0 0 0 0 0 0 0 0 0 0 0 1 0 0 0 0 0 0 0 0 0 0 0 0 0 0 0 0 0 0 0 0 0 0 0 0 0
0 0 0 0 0 0 0 0 0 0 0 0 0 0 0 0 0 0 0 0 0 0 0 0 0 0 0 0 0 0 0 0 0 0 0 0 0 0 0 0 0 0 0 0
0 0 0 0 0 0 0 0 0 0 0 0 0 0 0 0 0 0 0 0 0 0 0 0 0 0 0 0 0 0 0 0 0 0 0 0 0 0 0 0 0 0 0 0
0 0 0 0 0 0 0 0 0 0 0 0 0 0 0 0 0 0 0 0 0 0 0 0 0 0 0 0 0 0 0 0 0 0 0 0 0 0 0 0 0 0 0 0
0 0 0 0 0 0 0 0 0 0 0 0 0 0 0 0 0 0 0 0 0 0 0 0 0 0 0 0 0 0 0 0 0 0 0 0 0 0 0 0 0 0 0 0
0 0 0 0 0 0 0 0 0 0 0 0 0 0 0 0 0 0 0 0 0 0 0 0 0 0 0 0 0 0 0 0 0 0 0 0 0 0 0 0 0 0 0 0
0 0 0 0 0 0 0 0 0 0 0 0 0 0 0 0 0 0 0 0 0 0 0 0 0 0 0 0 0 0 0 0 0 0 0 0 0 0 0 0 0 0 0 0
0 0 0 0 0 0 0 0 0 0 0 0 0 0 0 0 0 0 0 0 0 0 0 0 0 0 0 0 0 0 0 0 0 0 0 0 0 0 0 0 0 0 0 0
0 0 0 0 0 0 0 0 0 0 0 0 0 0 0 0 0 0 0 0 0 0 0 0 0 0 0 0 0 0 0 0 0 0 0 0 0 0 0 0 0 0 0 0
0 0 0 0 0 0 0 0 0 0 0 0 0 0 0 0 0 0 0 0 0 0 0 0 0 0 0 0 0 0 0 0 -0 -0 -0 0 0 0 0 -0 -0 0 0 0
0 0 0 0 0 0 0 0 0 0 0 0 0 0 0 0 0 0 0 0 0 0 0 0 0 0 0 0 0 0 0 0 0 0 0 0 0 -0 -0 -0 0 -0 -0 0
0 0 0 0 0 0 0 0 0 0 0 0 0 0 0 0 0 0 0 0 0 0 0 0 0 0 0 0 0 0 0 0 0 0 0 0 -0 -0 -0 -0 0 0 -0 -0
0 0 0 0 0 0 0 0 0 0 0 0 0 0 0 0 0 0 0 0 0 0 0 0 0 0 0 0 -0 -0 0 0 0 0 0 0 0 0 0 -0 -0 0 0 0
0 0 0 0 0 0 0 0 0 0 0 0 0 0 0 0 0 0 0 0 0 0 0 0 0 -0 0 -0 0 -0 0 0 0 0 0 0 0 0 0 0 0 0 0 0
0 0 0 0 0 0 0 0 0 0 0 0 0 0 0 0 0 0 0 0 -0 0 -0 0 0 0 0 -0 -0 -0 0 0 -0 0 0 0 0 0 0 0 0 0 0 0
0 0 0 0 0 0 0 0 0 0 0 0 0 0 0 0 -0 0 0 0 0 0 0 0 0 0 -0 -0 -0 -0 0 0 0 0 0 0 0 0 0 0 0 0 0 -0
0 0 0 0 0 0 0 0 0 0 -0 -0 -0 0 0 0 0 0 0 0 0 0 0 0 0 -0 -0 0 0 0 0 0 0 -0 -0 -0 -0 -0 0 0 0 0 0 -0
0 0 0 0 0 0 0 0 -0 -0 0 0 0 0 0 0 0 0 0 0 0 0 0 0 0 0 0 0 0 0 0 0 0 0 0 0 -0 -0 -0 -0 -0 -0 -0 -0
0 0 0 0 0 0 -0 -0 0 0 0 0 0 0 0 0 0 0 0 0 0 0 0 0 0 0 0 0 0 0 0 0 0 0 0 0 0 0 0 0 -0 -0 -0 -0
Wind_Speed_500mb
5 1 19 31 32 29 24 14 15 11 15 11 5 9 11 11 9 12 18 23 26 24 24 20 17 14 8 4 3 8 6 6 11 15 19 18 21 23 23 23 27 29 30 31
9 13 22 23 26 26 16 17 7 7 9 6 6 5 3 4 8 16 21 25 28 30 32 29 22 20 19 14 9 7 3 2 3 7 12 15 17 18 18 21 23 24 27 24
16 16 21 24 29 26 20 19 13 16 11 2 5 3 4 8 10 16 21 22 23 24 22 19 15 12 9 9 9 7 5 4 6 10 13 19 21 18 19 22 21 22 25 30
11 18 24 13 8 5 11 15 12 7 5 6 6 9 9 6 11 15 16 16 15 14 14 13 11 10 9 8 7 5 5 7 13 19 20 18 14 19 29 34 40 38 39 38
9 23 12 12 7 8 15 19 14 8 11 15 19 17 11 7 8 10 10 9 7 5 5 7 8 10 8 8 11 13 16 16 19 19 19 21 27 30 29 30 30 31 33 37
1 7 10 19 10 2 2 16 20 14 19 24 25 17 18 15 9 8 6 4 1 3 7 8 12 12 9 11 12 12 14 16 18 19 20 23 22 26 24 25 32 38 41 41
10 15 7 9 5 5 15 4 11 7 12 19 14 13 14 11 10 9 6 5 6 6 6 5 10 13 9 11 10 11 15 18 21 19 20 23 23 22 29 32 32 37 43 42
7 11 14 8 7 10 10 8 7 5 7 14 11 6 4 8 10 9 7 7 6 8 7 6 11 10 11 12 10 15 16 16 18 20 20 21 25 30 33 35 38 44 45 47
8 9 7 1 3 2 4 4 7 6 6 7 8 7 6 6 7 8 9 10 9 10 11 9 8 12 13 17 18 17 15 16 21 23 25 26 29 35 39 40 43 48 52 51
5 7 5 6 5 5 3 2 3 3 5 6 6 5 5 5 7 9 12 13 13 13 13 15 15 15 20 23 22 22 24 29 29 30 32 33 35 44 44 48 50 52 54 54
7 8 7 14 11 8 8 9 10 8 7 4 3 6 6 8 10 11 13 12 9 12 16 17 18 19 20 22 24 31 35 36 37 41 39 42 46 48 54 51 52 59 51 56
8 15 10 20 17 15 19 20 16 11 6 4 3 4 6 9 10 11 12 13 15 17 20 23 26 30 31 30 29 33 38 42 43 45 50 49 52 56 55 61 58 58 60 55
17 16 17 21 19 22 25 23 17 12 11 9 5 3 7 12 15 18 19 21 23 25 27 31 34 36 36 33 31 32 33 37 44 46 48 48 52 58 67 64 53 50 40 50
24 26 30 28 27 26 22 18 15 15 14 10 3 5 10 15 18 20 20 19 18 20 23 26 28 29 30 26 25 27 28 36 39 40 43 52 55 60 56 49 49 42 36 38
18 17 26 28 27 25 19 15 15 18 16 9 5 7 10 14 17 19 19 18 20 24 29 30 32 32 23 19 19 22 27 36 35 43 52 55 48 43 45 44 42 44 42 38
30 30 25 23 23 16 16 13 20 18 13 9 9 11 15 19 22 23 23 23 24 29 30 33 31 27 19 18 23 28 36 41 45 43 38 32 35 38 41 45 43 36 28 26
21 21 18 23 22 20 15 9 8 7 5 5 10 15 19 24 28 29 30 29 31 32 32 30 31 28 25 25 28 35 36 29 29 29 25 24 29 34 35 37 39 32 23 18
4 8 10 7 8 10 8 6 3 5 9 14 19 24 28 31 35 38 39 39 36 31 24 27 28 18 24 24 22 20 24 21 16 17 17 23 26 28 28 29 27 18 15 14
15 17 18 17 14 9 5 6 10 15 20 25 29 33 34 34 35 34 33 32 30 24 17 15 20 17 14 22 22 14 12 7 12 12 23 25 30 35 38 32 28 25 30 45
16 14 12 9 9 8 10 14 18 21 22 23 24 26 27 27 26 26 27 25 22 22 22 18 14 16 14 14 12 4 8 6 8 16 18 23 30 36 38 45 48 46 49 45
9 9 10 11 11 12 13 15 16 18 18 20 24 27 30 29 23 22 24 24 16 11 11 13 9 9 9 4 6 5 5 2 8 18 14 12 15 15 16 20 20 16 20 22
9 11 12 11 12 13 13 14 16 17 26 23 24 22 19 19 22 16 17 18 13 8 5 4 1 5 6 7 3 4 7 9 22 10 8 9 12 15 17 18 17 15 15 15
10 12 14 14 14 14 14 17 18 19 16 18 21 21 22 14 9 8 6 3 16 13 8 5 10 11 10 8 3 8 9 25 10 6 12 15 16 16 15 14 16 15 13 12
10 11 11 11 14 15 14 14 15 10 10 16 16 17 11 4 3 7 15 22 26 18 15 11 8 10 14 12 20 21 33 11 13 15 15 17 14 13 11 11 12 12 12 12
8 10 9 14 12 12 12 12 11 11 11 12 15 18 26 27 27 27 30 32 30 20 17 22 26 23 30 37 31 25 18 16 16 13 13 13 13 12 12 13 13 12 12 13
12 7 8 7 8 12 9 11 13 13 11 12 13 14 16 23 26 27 30 28 22 26 29 26 39 45 38 33 28 24 19 16 15 16 15 15 15 14 14 13 12 12 12 12
9 5 2 4 6 8 7 10 13 14 18 20 18 19 22 25 28 28 28 28 36 41 49 46 38 32 28 25 23 21 20 20 19 20 22 21 20 18 17 14 12 11 11 9
Wind_Direction_500mb
325 186 199 197 179 181 201 212 228 151 226 107 12 355 357 351 25 58 64 67 68 75 84 92 100 102 102 147 64 91 46 350 321 294 277 284 293 301 303 294 297 301 300 295
180 196 202 201 186 186 185 177 191 206 208 62 5 324 355 43 80 87 81 79 81 83 86 88 84 83 86 83 82 103 72 333 284 283 294 303 315 317 314 312 314 311 308 303
190 192 186 199 190 188 173 180 213 214 78 155 239 211 152 107 87 92 92 89 87 86 86 83 80 81 69 71 77 85 79 54 13 351 330 326 323 322 317 313 310 313 310 305
139 174 206 86 99 239 202 182 139 111 156 197 175 150 136 119 98 89 88 87 86 83 79 70 60 54 60 76 77 59 39 8 3 352 340 330 324 312 307 309 309 310 308 303
200 208 104 129 141 164 185 191 184 187 165 162 152 151 149 138 115 114 100 92 93 72 31 9 3 346 5 1 2 356 353 351 342 332 318 309 308 314 320 324 322 319 313 304
51 244 242 76 104 70 150 255 166 194 176 171 167 220 127 156 164 157 152 164 226 298 308 328 319 323 358 339 336 333 334 333 328 323 319 316 320 321 323 326 323 315 312 308
226 261 242 105 94 159 228 14 13 184 183 184 202 53 111 152 180 187 197 225 263 282 289 297 317 323 330 322 318 330 325 319 318 315 314 314 316 317 314 316 314 321 318 315
177 233 239 36 173 244 24 11 23 111 154 178 172 142 141 164 179 190 221 242 256 264 274 285 308 313 306 303 310 313 311 313 311 310 309 310 309 310 310 312 311 317 320 317
333 45 91 58 53 61 120 40 52 75 125 154 185 185 180 192 209 234 243 254 263 275 283 279 294 306 300 300 300 296 300 308 305 304 304 305 312 316 310 310 308 314 318 320
276 128 145 162 196 191 180 217 214 193 192 202 211 212 232 260 264 269 273 273 274 277 286 293 292 296 296 299 289 281 281 292 299 304 302 299 308 313 314 313 311 309 309 314
237 192 206 216 224 242 236 227 213 188 175 178 238 273 281 285 289 286 284 280 281 286 294 286 289 294 288 292 284 283 286 289 292 296 298 304 307 310 309 303 303 303 301 305
293 56 308 308 299 257 267 262 235 221 238 267 258 270 289 302 304 301 292 289 293 295 287 282 281 283 283 281 284 286 285 285 292 300 301 306 308 310 306 305 302 301 304 307
307 313 307 291 285 283 274 242 227 251 259 249 235 298 314 318 311 301 303 297 295 292 288 284 282 285 285 284 285 291 286 288 291 295 299 308 312 312 310 309 306 306 303 304
293 296 284 277 278 285 244 221 245 251 232 207 230 314 318 313 310 308 308 307 305 304 302 300 297 294 294 290 293 293 292 293 301 299 308 309 310 309 305 307 311 311 312 310
295 293 279 279 272 251 226 236 244 230 214 204 233 281 300 303 302 303 300 300 304 302 302 298 297 294 287 300 304 300 302 298 298 302 306 306 307 307 310 312 314 314 316 317
286 286 282 262 256 236 240 242 230 222 219 226 249 278 284 281 284 287 290 294 297 294 293 296 294 291 295 309 308 308 304 306 308 313 310 311 310 312 312 315 317 316 318 315
290 289 286 259 247 243 239 204 200 200 248 283 281 285 287 284 283 285 285 286 290 291 291 290 290 284 296 309 310 310 309 313 318 322 315 318 324 326 326 322 320 316 316 326
109 58 38 59 115 141 135 127 84 331 312 290 294 294 292 290 288 287 286 287 287 287 289 301 288 278 304 310 320 328 320 314 311 335 348 357 349 351 358 3 10 29 68 74
89 80 75 77 81 82 49 345 320 304 299 297 294 293 293 292 291 291 290 284 278 271 291 320 304 318 316 310 325 333 321 356 9 44 54 37 39 41 39 41 46 69 98 100
77 69 59 45 19 355 329 317 310 306 305 303 299 297 295 294 293 293 293 282 282 272 272 284 304 321 320 319 343 24 41 4 97 81 84 66 55 55 55 61 78 84 90 85
34 17 3 351 344 339 332 325 318 310 308 307 305 298 294 297 301 298 297 287 288 281 257 282 306 309 319 318 56 11 14 102 75 116 94 69 41 40 57 66 66 51 29 35
358 352 351 350 347 338 332 327 316 314 323 316 316 316 307 295 295 286 294 278 264 170 168 309 267 350 142 120 80 24 128 83 129 119 96 60 36 40 40 36 36 39 45 56
344 346 343 337 333 338 337 346 338 333 342 334 328 317 304 303 297 306 331 127 148 137 90 74 117 113 117 102 126 112 94 126 114 64 42 35 31 34 37 44 44 45 53 46
333 334 339 345 336 340 346 348 338 349 359 359 9 14 24 13 122 125 110 105 112 109 113 109 75 90 86 105 118 107 118 87 51 44 40 38 31 28 34 38 37 39 40 44
343 340 348 349 359 357 350 352 42 20 12 46 55 60 69 79 90 101 107 108 107 101 90 84 96 91 100 101 100 102 84 67 71 46 37 33 27 29 32 32 42 48 37 39
337 344 343 9 8 22 34 56 34 29 55 53 60 72 85 82 88 95 103 105 103 104 103 100 107 105 101 95 90 87 82 62 43 36 33 35 32 37 35 38 35 35 35 33
315 324 1 13 58 81 68 64 74 70 79 86 79 83 88 90 103 109 118 112 107 105 109 108 101 91 91 88 81 70 56 40 37 42 40 41 41 37 33 26 23 24 23 360
Wind_Speed_850mb
5 1 19 31 32 29 24 14 15 11 15 11 5 9 11 11 9 12 18 23 26 24 24 20 17 14 8 4 3 8 6 6 11 15 19 18 21 23 23 23 27 29 30 31
9 13 22 23 26 26 16 17 7 7 9 6 6 5 3 4 8 16 21 25 28 30 32 29 22 20 19 14 9 7 3 2 3 7 12 15 17 18 18 21 23 24 27 24
16 16 21 24 29 26 20 19 13 16 11 2 5 3 4 8 10 16 21 22 23 24 22 19 15 12 9 9 9 7 5 4 6 10 13 19 21 18 19 22 21 22 25 30
11 18 24 13 8 5 11 15 12 7 5 6 6 9 9 6 11 15 16 16 15 14 14 13 11 10 9 8 7 5 5 7 13 19 20 18 14 19 29 34 40 38 39 38
9 23 12 12 7 8 15 19 14 8 11 15 19 17 11 7 8 10 10 9 7 5 5 7 8 10 8 8 11 13 16 16 19 19 19 21 27 30 29 30 30 31 33 37
1 7 10 19 10 2 2 16 20 14 19 24 25 17 18 15 9 8 6 4 1 3 7 8 12 12 9 11 12 12 14 16 18 19 20 23 22 26 24 25 32 38 41 41
10 15 7 9 5 5 15 4 11 7 12 19 14 13 14 11 10 9 6 5 6 6 6 5 10 13 9 11 10 11 15 18 21 19 20 23 23 22 29 32 32 37 43 42
7 11 14 8 7 10 10 8 7 5 7 14 11 6 4 8 10 9 7 7 6 8 7 6 11 10 11 12 10 15 16 16 18 20 20 21 25 30 33 35 38 44 45 47
8 9 7 1 3 2 4 4 7 6 6 7 8 7 6 6 7 8 9 10 9 10 11 9 8 12 13 17 18 17 15 16 21 23 25 26 29 35 39 40 43 48 52 51
5 7 5 6 5 5 3 2 3 3 5 6 6 5 5 5 7 9 12 13 13 13 13 15 15 15 20 23 22 22 24 29 29 30 32 33 35 44 44 48 50 52 54 54
7 8 7 14 11 8 8 9 10 8 7 4 3 6 6 8 10 11 13 12 9 12 16 17 18 19 20 22 24 31 35 36 37 41 39 42 46 48 54 51 52 59 51 56
8 15 10 20 17 15 19 20 16 11 6 4 3 4 6 9 10 11 12 13 15 17 20 23 26 30 31 30 29 33 38 42 43 45 50 49 52 56 55 61 58 58 60 55
17 16 17 21 19 22 25 23 17 12 11 9 5 3 7 12 15 18 19 21 23 25 27 31 34 36 36 33 31 32 33 37 44 46 48 48 52 58 67 64 53 50 40 50
24 26 30 28 27 26 22 18 15 15 14 10 3 5 10 15 18 20 20 19 18 20 23 26 28 29 30 26 25 27 28 36 39 40 43 52 55 60 56 49 49 42 36 38
18 17 26 28 27 25 19 15 15 18 16 9 5 7 10 14 17 19 19 18 20 24 29 30 32 32 23 19 19 22 27 36 35 43 52 55 48 43 45 44 42 44 42 38
30 30 25 23 23 16 16 13 20 18 13 9 9 11 15 19 22 23 23 23 24 29 30 33 31 27 19 18 23 28 36 41 45 43 38 32 35 38 41 45 43 36 28 26
21 21 18 23 22 20 15 9 8 7 5 5 10 15 19 24 28 29 30 29 31 32 32 30 31 28 25 25 28 35 36 29 29 29 25 24 29 34 35 37 39 32 23 18
4 8 10 7 8 10 8 6 3 5 9 14 19 24 28 31 35 38 39 39 36 31 24 27 28 18 24 24 22 20 24 21 16 17 17 23 26 28 28 29 27 18 15 14
15 17 18 17 14 9 5 6 10 15 20 25 29 33 34 34 35 34 33 32 30 24 17 15 20 17 14 22 22 14 12 7 12 12 23 25 30 35 38 32 28 25 30 45
16 14 12 9 9 8 10 14 18 21 22 23 24 26 27 27 26 26 27 25 22 22 22 18 14 16 14 14 12 4 8 6 8 16 18 23 30 36 38 45 48 46 49 45
9 9 10 11 11 12 13 15 16 18 18 20 24 27 30 29 23 22 24 24 16 11 11 13 9 9 9 4 6 5 5 2 8 18 14 12 15 15 16 20 20 16 20 22
9 11 12 11 12 13 13 14 16 17 26 23 24 22 19 19 22 16 17 18 13 8 5 4 1 5 6 7 3 4 7 9 22 10 8 9 12 15 17 18 17 15 15 15
10 12 14 14 14 14 14 17 18 19 16 18 21 21 22 14 9 8 6 3 16 13 8 5 10 11 10 8 3 8 9 25 10 6 12 15 16 16 15 14 16 15 13 12
10 11 11 11 14 15 14 14 15 10 10 16 16 17 11 4 3 7 15 22 26 18 15 11 8 10 14 12 20 21 33 11 13 15 15 17 14 13 11 11 12 12 12 12
8 10 9 14 12 12 12 12 11 11 11 12 15 18 26 27 27 27 30 32 30 20 17 22 26 23 30 37 31 25 18 16 16 13 13 13 13 12 12 13 13 12 12 13
12 7 8 7 8 12 9 11 13 13 11 12 13 14 16 23 26 27 30 28 22 26 29 26 39 45 38 33 28 24 19 16 15 16 15 15 15 14 14 13 12 12 12 12
9 5 2 4 6 8 7 10 13 14 18 20 18 19 22 25 28 28 28 28 36 41 49 46 38 32 28 25 23 21 20 20 19 20 22 21 20 18 17 14 12 11 11 9
Wind_Direction_850mb
325 186 199 197 179 181 201 212 228 151 226 107 12 355 357 351 25 58 64 67 68 75 84 92 100 102 102 147 64 91 46 350 321 294 277 284 293 301 303 294 297 301 300 295
180 196 202 201 186 186 185 177 191 206 208 62 5 324 355 43 80 87 81 79 81 83 86 88 84 83 86 83 82 103 72 333 284 283 294 303 315 317 314 312 314 311 308 303
190 192 186 199 190 188 173 180 213 214 78 155 239 211 152 107 87 92 92 89 87 86 86 83 80 81 69 71 77 85 79 54 13 351 330 326 323 322 317 313 310 313 310 305
139 174 206 86 99 239 202 182 139 111 156 197 175 150 136 119 98 89 88 87 86 83 79 70 60 54 60 76 77 59 39 8 3 352 340 330 324 312 307 309 309 310 308 303
200 208 104 129 141 164 185 191 184 187 165 162 152 151 149 138 115 114 100 92 93 72 31 9 3 346 5 1 2 356 353 351 342 332 318 309 308 314 320 324 322 319 313 304
51 244 242 76 104 70 150 255 166 194 176 171 167 220 127 156 164 157 152 164 226 298 308 328 319 323 358 339 336 333 334 333 328 323 319 316 320 321 323 326 323 315 312 308
226 261 242 105 94 159 228 14 13 184 183 184 202 53 111 152 180 187 197 225 263 282 289 297 317 323 330 322 318 330 325 319 318 315 314 314 316 317 314 316 314 321 318 315
177 233 239 36 173 244 24 11 23 111 154 178 172 142 141 164 179 190 221 242 256 264 274 285 308 313 306 303 310 313 311 313 311 310 309 310 309 310 310 312 311 317 320 317
333 45 91 58 53 61 120 40 52 75 125 154 185 185 180 192 209 234 243 254 263 275 283 279 294 306 300 300 300 296 300 308 305 304 304 305 312 316 310 310 308 314 318 320
276 128 145 162 196 191 180 217 214 193 192 202 211 212 232 260 264 269 273 273 274 277 286 293 292 296 296 299 289 281 281 292 299 304 302 299 308 313 314 313 311 309 309 314
237 192 206 216 224 242 236 227 213 188 175 178 238 273 281 285 289 286 284 280 281 286 294 286 289 294 288 292 284 283 286 289 292 296 298 304 307 310 309 303 303 303 301 305
293 56 308 308 299 257 267 262 235 221 238 267 258 270 289 302 304 301 292 289 293 295 287 282 281 283 283 281 284 286 285 285 292 300 301 306 308 310 306 305 302 301 304 307
307 313 307 291 285 283 274 242 227 251 259 249 235 298 314 318 311 301 303 297 295 292 288 284 282 285 285 284 285 291 286 288 291 295 299 308 312 312 310 309 306 306 303 304
293 296 284 277 278 285 244 221 245 251 232 207 230 314 318 313 310 308 308 307 305 304 302 300 297 294 294 290 293 293 292 293 301 299 308 309 310 309 305 307 311 311 312 310
295 293 279 279 272 251 226 236 244 230 214 204 233 281 300 303 302 303 300 300 304 302 302 298 297 294 287 300 304 300 302 298 298 302 306 306 307 307 310 312 314 314 316 317
286 286 282 262 256 236 240 242 230 222 219 226 249 278 284 281 284 287 290 294 297 294 293 296 294 291 295 309 308 308 304 306 308 313 310 311 310 312 312 315 317 316 318 315
290 289 286 259 247 243 239 204 200 200 248 283 281 285 287 284 283 285 285 286 290 291 291 290 290 284 296 309 310 310 309 313 318 322 315 318 324 326 326 322 320 316 316 326
109 58 38 59 115 141 135 127 84 331 312 290 294 294 292 290 288 287 286 287 287 287 289 301 288 278 304 310 320 328 320 314 311 335 348 357 349 351 358 3 10 29 68 74
89 80 75 77 81 82 49 345 320 304 299 297 294 293 293 292 291 291 290 284 278 271 291 320 304 318 316 310 325 333 321 356 9 44 54 37 39 41 39 41 46 69 98 100
77 69 59 45 19 355 329 317 310 306 305 303 299 297 295 294 293 293 293 282 282 272 272 284 304 321 320 319 343 24 41 4 97 81 84 66 55 55 55 61 78 84 90 85
34 17 3 351 344 339 332 325 318 310 308 307 305 298 294 297 301 298 297 287 288 281 257 282 306 309 319 318 56 11 14 102 75 116 94 69 41 40 57 66 66 51 29 35
358 352 351 350 347 338 332 327 316 314 323 316 316 316 307 295 295 286 294 278 264 170 168 309 267 350 142 120 80 24 128 83 129 119 96 60 36 40 40 36 36 39 45 56
344 346 343 337 333 338 337 346 338 333 342 334 328 317 304 303 297 306 331 127 148 137 90 74 117 113 117 102 126 112 94 126 114 64 42 35 31 34 37 44 44 45 53 46
333 334 339 345 336 340 346 348 338 349 359 359 9 14 24 13 122 125 110 105 112 109 113 109 75 90 86 105 118 107 118 87 51 44 40 38 31 28 34 38 37 39 40 44
343 340 348 349 359 357 350 352 42 20 12 46 55 60 69 79 90 101 107 108 107 101 90 84 96 91 100 101 100 102 84 67 71 46 37 33 27 29 32 32 42 48 37 39
337 344 343 9 8 22 34 56 34 29 55 53 60 72 85 82 88 95 103 105 103 104 103 100 107 105 101 95 90 87 82 62 43 36 33 35 32 37 35 38 35 35 35 33
315 324 1 13 58 81 68 64 74 70 79 86 79 83 88 90 103 109 118 112 107 105 109 108 101 91 91 88 81 70 56 40 37 42 40 41 41 37 33 26 23 24 23 360